Regional Weather Roundup
Issued by NWS Sioux Falls, SD

Home | Current Version | Previous Version | Text Only | Print | Product List | Glossary Off
Versions: 1 2 3 4 5 6 7 8 9 10 11 12 13 14 15 16 17 18 19 20 21 22 23 24 25 26 27 28 29 30 31 32 33 34 35 36 37 38 39 40 41 42 43 44 45 46 47 48 49 50

000
ASUS43 KFSD 030810
RWRFSD

WEATHER ROUNDUP FOR SE SOUTH DAKOTA/SW MINNESOTA/NW IOWA
NATIONAL WEATHER SERVICE SIOUX FALLS SD
300 AM CDT MON AUG 03 2015

NOTE: "FAIR" INDICATES FEW OR NO CLOUDS BELOW 12,000 FEET WITH NO
SIGNIFICANT WEATHER AND OR OBSTRUCTIONS TO VISIBILITY.


SDZ038>040-050-052>070-030900-
SOUTHEAST SOUTH DAKOTA

CITY           SKY/WX    TMP DP  RH WIND       PRES   REMARKS
BROOKINGS      CLEAR     57  54  88 CALM      29.97F
CHAMBERLAIN    CLEAR     59  57  91 CALM      29.96F
HURON          CLEAR     60  57  89 CALM      29.94F
MADISON        FAIR      57  57 100 N5        29.97S
MITCHELL       CLEAR     61  58  90 CALM      29.95S
SIOUX FALLS    CLEAR     60  57  89 NE6       29.94F
WINNER         FAIR      67  57  70 S3        29.98S
YANKTON        CLEAR     63  57  82 CALM      29.94R
$$

MNZ071-072-080-081-089-090-097-098-030900-
SOUTHWEST MINNESOTA

CITY           SKY/WX    TMP DP  RH WIND       PRES   REMARKS
FAIRMONT       CLEAR     61  52  72 NW5       29.93R
JACKSON        CLEAR     59  55  88 NW3       29.96R
LUVERNE        CLEAR     59  54  82 CALM      29.96F
MARSHALL       CLEAR     55  48  76 W6        29.94S
MONTEVIDEO     CLEAR     57  52  82 NW5       29.93F
PIPESTONE      CLEAR     61  55  82 CALM      29.96S
REDWOOD FALLS  CLEAR     59  52  77 W3        29.91S
TRACY          CLEAR     59  54  82 W5        29.95S
WINDOM         CLEAR     57  54  88 CALM      29.95R
WORTHINGTON    CLEAR     57  52  82 N6        29.95F
$$

IAZ001>003-012>014-020>022-031-032-NEZ013-014-SDZ071-030900-
NORTHWEST IOWA

CITY           SKY/WX    TMP DP  RH WIND       PRES   REMARKS
CHEROKEE       CLEAR     62  62 100 CALM      29.92F
DENISON        MOCLDY    64  63  94 CALM      29.91S
ESTHERVILLE    CLEAR     57  55  93 NW5       29.93F
LE MARS        CLEAR     61  61 100 N5        29.93S
ORANGE CITY    CLEAR     64  57  77 NE5       29.93F
SHELDON        CLEAR     61  57  88 N9        29.93F
SIOUX CITY     NOT AVBL
SPENCER        CLEAR     63  55  75 N10       29.93F
STORM LAKE     CLEAR     63  59  88 N12       29.93S
$$

ABBREVIATIONS USED IN REMARKS
   TC - TEMPERATURE IN CELSIUS
  WCI - WIND CHILL INDEX
   HX - HEAT INDEX
  VSB - VISIBILITY



USA.gov is the U.S. government's official web portal to all federal, state and local government web resources and services.